Weather in Sasykino

Russia / Ryazan Oblast     54°15′03″N   40°49′29″E
temp.,
°C
wind,
m/s
gust,
m/s
humid.,
%
clouds,
%
prec.,
mm/h
press.,
hPa
HPBL,
m
5 march, fri
fri500:00−3n2498100 1.7 1000149
03:00−4nw3797100 2.4 1001219
06:00−6nw4896100 0.1 1004218
09:00−8nw479567 0.1 1006216
12:00−4wnw359339 0.0 1008343
15:00−3w578847 0.0 1010669
18:00−6w459059 0.0 101180
21:00−9w349029 0.0 101460
6 march, sat
sat600:00−11w33880 0.0 101521
03:00−13w22880 0.0 101721
06:00−14w12890 0.0 101620
09:00−10wsw11870 0.0 101732
12:00−6wnw128448 0.0 1016297
15:00−5nw228660 0.0 1015389
18:00−9wnw349379 0.0 101538
21:00−11wnw349176 0.0 101633
7 march, sun
sun700:00−12w339354 0.0 101539
03:00−14wsw479436 0.0 101496
06:00−13sw511910 0.0 1012202
09:00−8sw8178249 0.0 1008549
12:00−5sw101781100 0.0 1004862
15:00−4sw111993100 1.2 9991302
18:00−3sw91694100 1.9 9961018
21:00−7wnw91876100 3.3 998835
8 march, mon
mon800:00−10wsw6148333 0.0 1000334
03:00−9sw8158247 0.0 1000407
06:00−10sw8168498 0.0 997527
09:00−6wsw9149299 0.1 9961028
12:00−7w91282100 0.4 9981225
15:00−7wnw101480100 0.6 10011385
18:00−8wnw71487100 0.1 1004848
21:00−10wnw5129087 0.1 1007367
9 march, tue
tue900:00−13w499518 0.0 1009168
03:00−15wnw349726 0.0 101157
06:00−17nw349712 0.0 101237
09:00−15nw359548 0.0 1014221
12:00−12nw358995 0.0 1015570
15:00−11nw468698 0.1 1016822
18:00−14nw3593100 0.1 101790
21:00−17nnw3597100 0.1 101975